Torna al catalogo

MIDAS 5 DEB

LostPO
NORAD 18603·DEBRIS·🇺🇸 United States

Lanciato Apr 9, 1962 da Vandenberg Space Force Base

Loading…

Prossimi Passaggi (prossime 24 ore)

TLE

ObsoletoSource: Space-Track

Epoca: May 31, 2026, 22:36 UTC

1 18603U 62010G   26151.94233968  .00000004  00000-0 -32190-3 0  9999
2 18603  86.6848 328.5198 0291243  81.4765  73.9026  9.41013414377010

Traccia MIDAS 5 DEB in tempo reale con AllMySat

Download on the App Store